Location: Berging
(48.2667°N, 15.4000°E)
Time: 11:40:07
(UTC+00:00)

Daily predictions for brighter satellites

Satellite Brightness Start Highest point End
(mag) Time Altitude Azimuth Time Altitude Azimuth Time Altitude Azimuth
USA 234 3.9 16:19:40 10° ENE 16:25:53 47° NNW 16:32:03 10° W
ERS-2 4.0 16:25:40 10° ENE 16:27:27 13° E 16:29:15 10° ESE
Cosmos 2278 Rocket 3.3 16:25:10 10° SSE 16:29:35 24° ESE 16:34:01 10° NE
Okean-O 3.8 16:27:13 10° ESE 16:30:36 22° ENE 16:34:01 10° NNE
CORIOLIS 4.3 16:28:23 10° SSE 16:33:46 83° WSW 16:39:10 10° NNW
CZ-2C R/B 3.6 16:30:22 10° SE 16:35:35 45° ENE 16:41:02 10° N
NOSS 2-1 (E) 3.1 16:32:35 10° SSW 16:35:48 52° SE 16:39:13 10° NE
Cosmos 1346 Rocket 4.4 16:33:53 10° SE 16:36:19 16° E 16:38:46 10° NE
Cosmos 1340 3.3 16:32:55 10° SSE 16:36:19 34° E 16:39:46 10° NNE
COSMOS 2455 3.8 16:30:45 10° WSW 16:36:32 46° NW 16:42:21 10° NNE
CZ-4B R/B 3.5 16:31:34 10° S 16:37:10 77° WSW 16:42:52 10° NNW
Aureole 2 Rocket 4.4 16:36:00 10° WSW 16:38:32 23° WNW 16:41:07 10° N
SMAP 3.8 16:37:00 10° S 16:41:35 58° W 16:46:12 10° NNW
Cosmos 2058 Rocket 4.4 16:41:04 10° NNW 16:45:23 46° W 16:49:42 10° SSW
Cosmos 1455 2.7 16:43:34 10° NNW 16:47:24 64° W 16:51:12 10° S
Cosmos 405 3.4 16:44:30 10° N 16:47:51 38° ENE 16:51:10 10° SE
ARGOS 4.0 16:44:31 10° ESE 16:48:54 26° ENE 16:53:19 10° N
Cosmos 1626 Rocket 3.5 16:46:08 10° S 16:50:32 78° E 16:55:01 10° NNE
Cosmos 1092 Rocket 4.0 16:45:17 10° S 16:51:19 61° E 16:57:22 10° NNE
Cosmos 2263 Rocket 4.4 16:49:33 10° W 16:53:23 18° NW 16:57:13 10° N
Cosmos 1898 Rocket 3.5 16:48:46 10° SSW 16:54:00 72° ESE 16:59:13 10° NNE
CZ-2C R/B 4.1 16:53:11 10° NE 16:56:46 17° E 17:00:20 10° SE
TELKOM 3 2.8 16:55:13 10° WNW 16:57:21 60° N 16:58:27 25° E
Cosmos 1680 Rocket 4.1 16:52:57 10° NNW 16:58:07 61° WSW 17:03:14 10° S
Nadezhda 4 Rocket 4.2 16:53:55 10° SSW 17:00:08 75° W 17:06:20 10° N
Cosmos 1328 3.7 16:58:50 10° S 17:02:47 65° E 17:06:44 10° NNE
CZ-4B R/B 1.2 17:00:50 10° NNE 17:04:09 68° ESE 17:07:20 10° S
CZ-2D R/B 3.1 17:01:43 10° SSE 17:05:32 78° ENE 17:09:22 10° N
MOS 1 Rocket 3.2 17:01:38 10° NNE 17:05:51 54° E 17:10:07 10° S
Meteor 2-8 Rocket 4.4 17:02:18 10° N 17:08:26 80° E 17:14:33 10° SSE
Meteor 1-11 4.4 17:03:36 10° SSE 17:09:03 50° E 17:14:29 10° NNE
Cosmos-2242 3.1 17:05:17 10° N 17:09:29 51° ENE 17:13:42 10° SSE
COSMO-SKYMED 1 2.5 17:08:52 10° NNE 17:13:14 79° ESE 17:17:34 10° S
BREEZE-M DEB (TANK) 1.6 17:14:10 10° WNW 17:16:20 81° NNE 17:17:14 34° E
Cosmos 1937 Rocket 3.5 17:11:20 10° SSW 17:16:39 82° ESE 17:22:01 10° NNE
Cosmos 1758 Rocket 3.6 17:12:51 10° S 17:17:14 61° E 17:21:42 10° NNE
Cosmos 2098 Rocket 4.3 17:10:40 10° S 17:18:00 67° E 17:25:04 10° NNE
USA 290 2.1 17:18:35 10° NNW 17:21:47 90° NNW 17:24:57 10° SSE
CSL-04 Debris 4.4 17:17:15 10° SE 17:22:21 46° ENE 17:27:29 10° N
SL-08 RB Rocket 4.4 17:21:13 18° ESE 17:23:43 31° ENE 17:27:40 10° N
NOSS 2-1 (C) 3.8 17:21:48 10° WSW 17:24:59 44° NW 17:27:19 18° NNE
Cosmos 1833 Rocket 2.7 17:20:09 10° NNW 17:25:48 87° WSW 17:31:26 10° SSE
H-2A R/B 1.9 17:22:53 10° SSE 17:27:54 68° ENE 17:33:07 10° N
Cosmos 2221 4.3 17:25:26 10° NNE 17:26:47 16° NNE 17:26:47 16° NNE
H-2A R/B 3.9 17:26:19 10° N 17:30:13 32° WNW 17:34:02 10° SW
Helios 1A Rocket 2.9 17:26:27 10° SSE 17:30:30 56° ENE 17:34:35 10° N
NOSS 2-1 (D) 4.1 17:27:50 10° WSW 17:30:58 39° NW 17:33:06 19° NNE
Cosmos 2344 4.4 17:23:23 10° NW 17:32:41 86° SW 17:45:44 10° SE
Cosmos 389 Rocket 4.1 17:30:37 10° N 17:32:01 20° NNE 17:32:01 20° NNE
USA 229 DEB 4.4 17:26:54 10° NW 17:34:06 64° WSW 17:41:40 10° SSE
Cosmos 1602 Rocket 4.4 17:29:54 10° SSW 17:34:09 51° WNW 17:38:28 10° N
USA 229 4.4 17:27:00 10° NW 17:34:12 64° SW 17:41:48 10° SSE
Cosmos 44 4.5 17:30:32 10° WSW 17:35:10 40° NW 17:39:30 13° NNE
Cosmos 2026 Rocket 4.0 17:29:09 10° S 17:35:18 84° W 17:41:37 10° N
CZ-3B R/B 2.6 17:32:44 10° WNW 17:35:33 64° SSW 17:44:20 10° SE
SJ 16-02 3.8 17:34:43 10° WSW 17:37:59 20° NW 17:41:15 10° N
Cosmos 1417 Rocket 4.4 17:32:45 10° N 17:38:59 67° ENE 17:45:15 10° SSE
Meteor 2-15 Rocket 4.3 17:32:56 10° N 17:39:08 77° E 17:45:16 10° SSE
YAOGAN 1 2.5 17:35:13 10° SSE 17:39:32 90° S 17:43:54 10° NNW
Cosmos 1689 Rocket 2.1 17:41:34 57° SSE 17:41:34 57° SSE 17:43:58 10° S
SJ-11-01 4.1 17:36:40 10° SSE 17:41:20 81° ENE 17:46:03 10° NNW
Cosmos 1553 Rocket 3.9 17:35:45 10° N 17:42:11 81° E 17:48:31 10° SSE
Aureole 3 Rocket 3.6 17:39:45 10° NNW 17:42:53 47° W 17:46:45 10° S
COSMOS 2406 3.9 17:39:25 10° NW 17:45:05 57° WSW 17:50:41 10° S
Cosmos 2082 Rocket 2.1 17:39:54 10° NNW 17:45:40 77° ENE 17:51:22 10° SSE
HJ-1C 3.2 17:47:04 68° E 17:47:13 70° ENE 17:50:34 10° N
Meteor 1-27 4.1 17:43:26 10° NNW 17:49:05 88° E 17:54:38 10° S
Cosmos 1825 Rocket 3.5 17:44:43 10° S 17:49:07 86° WNW 17:53:34 10° N
X-37B 2.3 17:48:13 10° W 17:50:58 26° SSW 17:51:36 24° S
deb Kosmos-1763 3.8 17:48:37 10° NNW 17:52:13 85° ENE 17:52:52 58° SSE
NOSS 2-2 (E) 4.5 17:47:59 10° NW 17:53:13 57° NE 17:56:04 33° ESE
ISS -3.2 17:50:45 10° WNW 17:53:50 48° N 17:53:50 48° N
MetOp-A 4.5 17:56:25 41° ENE 17:56:33 41° ENE 18:01:33 10° N
ATLAS 2AS CENTAUR R/B 4.2 17:51:34 10° NW 17:57:48 25° N 18:00:55 19° NE
CZ-4 R/B 2.4 17:55:27 10° S 17:59:19 46° W 18:03:09 10° NNW
ATLAS 5 CENTAUR R/B 4.0 17:57:05 10° NNW 17:59:45 14° N 18:00:57 13° NNE
Iridium 4 Rocket 4.4 17:54:58 10° NNW 18:00:10 49° W 18:04:53 10° SSW
Cosmos 2315 Rocket 4.2 17:54:38 10° N 18:00:34 44° ENE 18:01:36 40° E
ERS-2 2.8 17:58:38 17° N 18:01:18 52° WNW 18:04:50 10° SSW
CSL-04 Rocket 3.6 17:58:04 10° SSE 18:03:31 89° E 18:09:06 10° NNW
Okean-O 3.6 18:02:31 10° S 18:06:48 47° W 18:11:06 10° NNW
USA 234 3.9 18:05:52 32° NE 18:08:10 43° N 18:14:16 10° WNW
S3M 3.8 18:02:31 10° N 18:08:41 88° E 18:14:49 10° S
Ariane Rocket 4.2 18:11:25 28° NNE 18:11:25 28° NNE 18:14:09 10° N
CZ-4C R/B 4.0 18:05:09 10° NW 18:10:15 24° NNE 18:11:46 22° NNE
Cosmos 1346 Rocket 3.8 18:08:29 10° SSW 18:12:17 46° WNW 18:15:11 16° N
Cosmos 1655 Rocket 3.8 18:06:12 10° S 18:12:24 76° E 18:18:38 10° NNE
Cosmos 2278 Rocket 2.6 18:07:36 10° SW 18:13:13 62° WNW 18:17:11 20° NNE
Cosmos 1953 Rocket 3.7 18:11:17 10° SSW 18:15:36 70° W 18:17:58 26° N
USA 281 4.4 18:17:58 24° NNE 18:17:58 24° NNE 18:22:16 10° N
Cosmos 2292 Rocket 3.6 18:15:39 10° SSW 18:20:25 72° W 18:20:41 69° NW
Cosmos 44 Rocket 3.2 18:18:33 10° SSW 18:23:19 77° SSE 18:23:19 77° SSE
ARGOS 3.8 18:23:37 10° S 18:28:51 54° W 18:34:09 10° NNW
Meteor 2-2 Rocket 4.3 18:24:16 10° NNW 18:30:17 89° WSW 18:34:21 22° S
Cosmos 1869 4.2 18:26:51 10° NNW 18:30:10 47° WNW 18:30:10 47° WNW
NOSS 2-2 (D) 4.3 18:27:22 10° NW 18:32:42 79° NE 18:33:29 68° ESE
CZ-2C R/B 2.7 18:33:46 21° NNE 18:37:42 82° WNW 18:43:19 10° SSW
Cosmos 494 Rocket 4.1 18:37:12 10° NNW 18:42:20 69° WSW 18:42:29 69° WSW
Cosmos 2150 Rocket 4.2 18:40:45 10° SSW 18:45:53 66° WNW 18:45:58 66° WNW
Cosmos 909 Rocket 4.3 18:54:30 10° NNW 19:00:09 63° N 19:00:09 63° N
USA 234 4.3 19:53:12 40° NW 19:53:12 40° NW 19:57:11 10° NW
ATLAS 2AS CENTAUR R/B 4.1 19:43:49 10° NW 19:48:21 31° N 19:48:21 31° N
CZ-4C R/B 4.2 19:53:48 10° NW 19:56:58 28° NNW 19:56:58 28° NNW
